When you browse on this site, cookies collect data to enhance your experience and personalize the content and advertising you see.
Visit our Privacy Policy to learn more. By continuing to use the site, you agree to this use of cookies and data.
  • In Belgien
  • Länderverzeichnis
  • Für 7 Tage
  • Wassertemperatur
  • Satellitenkarten
  • Wetterkarte
  • Widgets
  • user-avatar
    Anmelden

    Stündliche Wetter Jechegnadsor

    Heute, 18 Februar, Montag

    Zeit Temperatur Niederschläge Wind Luftdruck Luftfeuchtigkeit
    00:00 -3°C° 0 mm 1 m/S 649 mmHg 70%
    01:00 -3°C° 0 mm 1 m/S 649 mmHg 71%
    02:00 -3°C° 0 mm 1 m/S 649 mmHg 72%
    03:00 -3°C° 0 mm 1 m/S 649 mmHg 72%
    04:00 -4°C° 0 mm 1 m/S 649 mmHg 73%
    05:00 -4°C° 0 mm 1 m/S 648 mmHg 73%
    06:00 -4°C° 0 mm 1 m/S 648 mmHg 74%
    07:00 -3°C° 0 mm 1 m/S 648 mmHg 72%
    08:00 -2°C° 0 mm 1 m/S 648 mmHg 69%
    09:00 -1°C° 0 mm 1 m/S 648 mmHg 67%
    10:00 0°C° 0 mm 1 m/S 648 mmHg 66%
    11:00 -1°C° 0 mm 2 m/S 647 mmHg 66%
    12:00 +1°C° 0 mm 2 m/S 646 mmHg 65%
    13:00 +1°C° 0 mm 2 m/S 646 mmHg 64%
    14:00 +2°C° 0 mm 2 m/S 645 mmHg 63%
    15:00 +2°C° 0 mm 2 m/S 645 mmHg 62%
    16:00 +1°C° 0 mm 2 m/S 645 mmHg 65%
    17:00 +1°C° 0 mm 1 m/S 644 mmHg 67%
    18:00 -1°C° 0 mm 1 m/S 644 mmHg 70%
    19:00 -1°C° 0 mm 1 m/S 645 mmHg 70%
    20:00 -1°C° 0 mm 1 m/S 645 mmHg 71%
    21:00 -2°C° 0 mm 1 m/S 645 mmHg 72%
    22:00 -2°C° 0 mm 1 m/S 645 mmHg 73%
    23:00 -2°C° 0 mm 1 m/S 645 mmHg 75%

    Morgen, 19 Februar, Dienstag

    Zeit Temperatur Niederschläge Wind Luftdruck Luftfeuchtigkeit
    00:00 -2°C° 0 mm 1 m/S 645 mmHg 76%
    01:00 -3°C° 0 mm 1 m/S 645 mmHg 77%
    02:00 -3°C° 0 mm 1 m/S 645 mmHg 77%
    03:00 -3°C° 0 mm 1 m/S 646 mmHg 78%
    04:00 -3°C° 0 mm 1 m/S 646 mmHg 77%
    05:00 -3°C° 0 mm 1 m/S 646 mmHg 77%
    06:00 -3°C° 0 mm 1 m/S 646 mmHg 76%
    07:00 -2°C° 0 mm 1 m/S 647 mmHg 74%
    08:00 -1°C° 0 mm 1 m/S 647 mmHg 71%
    09:00 0°C° 0 mm 1 m/S 648 mmHg 69%
    10:00 -1°C° 0 mm 2 m/S 648 mmHg 65%
    11:00 +1°C° 0 mm 2 m/S 648 mmHg 62%
    12:00 +2°C° 0 mm 2 m/S 649 mmHg 58%
    13:00 +2°C° 0 mm 2 m/S 649 mmHg 57%
    14:00 +2°C° 0 mm 2 m/S 649 mmHg 56%
    15:00 +2°C° 0 mm 2 m/S 649 mmHg 54%
    16:00 +1°C° 0 mm 2 m/S 649 mmHg 56%
    17:00 -1°C° 0 mm 2 m/S 650 mmHg 58%
    18:00 -3°C° 0 mm 2 m/S 650 mmHg 60%
    19:00 -3°C° 0 mm 2 m/S 651 mmHg 60%
    20:00 -4°C° 0 mm 2 m/S 651 mmHg 59%
    21:00 -4°C° 0 mm 2 m/S 652 mmHg 59%
    22:00 -4°C° 0 mm 2 m/S 652 mmHg 58%
    23:00 -5°C° 0 mm 2 m/S 653 mmHg 57%

    übermorgen, 20 Februar, Mittwoch

    Zeit Temperatur Niederschläge Wind Luftdruck Luftfeuchtigkeit
    00:00 -5°C° 0 mm 2 m/S 653 mmHg 55%
    01:00 -5°C° 0 mm 2 m/S 653 mmHg 54%
    02:00 -5°C° 0 mm 2 m/S 653 mmHg 52%
    03:00 -5°C° 0 mm 2 m/S 653 mmHg 50%
    04:00 -6°C° 0 mm 2 m/S 654 mmHg 48%
    05:00 -6°C° 0 mm 2 m/S 654 mmHg 46%
    06:00 -6°C° 0 mm 2 m/S 654 mmHg 44%
    07:00 -2°C° 0 mm 1 m/S 654 mmHg 44%
    08:00 -1°C° 0 mm 1 m/S 655 mmHg 43%
    09:00 +1°C° 0 mm 1 m/S 656 mmHg 42%
    10:00 +2°C° 0 mm 1 m/S 656 mmHg 43%
    11:00 +3°C° 0 mm 1 m/S 656 mmHg 43%
    12:00 +3°C° 0 mm 2 m/S 655 mmHg 44%
    13:00 +4°C° 0 mm 1 m/S 655 mmHg 44%
    14:00 +4°C° 0 mm 1 m/S 655 mmHg 44%
    15:00 +5°C° 0 mm 1 m/S 654 mmHg 44%
    16:00 +3°C° 0 mm 1 m/S 654 mmHg 45%
    17:00 +1°C° 0 mm 1 m/S 654 mmHg 47%
    18:00 0°C° 0 mm 1 m/S 653 mmHg 49%
    19:00 0°C° 0 mm 1 m/S 654 mmHg 44%
    20:00 -3°C° 0 mm 2 m/S 654 mmHg 40%
    21:00 -3°C° 0 mm 2 m/S 654 mmHg 35%
    22:00 -3°C° 0 mm 2 m/S 654 mmHg 34%
    23:00 -3°C° 0 mm 2 m/S 654 mmHg 33%

    21 Februar, Donnerstag

    Zeit Temperatur Niederschläge Wind Luftdruck Luftfeuchtigkeit
    00:00 -4°C° 0 mm 2 m/S 654 mmHg 32%
    01:00 -4°C° 0 mm 2 m/S 653 mmHg 36%
    02:00 -4°C° 0 mm 2 m/S 653 mmHg 40%
    03:00 -4°C° 0 mm 2 m/S 653 mmHg 44%
    04:00 -4°C° 0 mm 2 m/S 653 mmHg 47%
    05:00 -5°C° 0 mm 2 m/S 653 mmHg 49%
    06:00 -5°C° 0 mm 2 m/S 652 mmHg 51%
    07:00 -1°C° 0 mm 1 m/S 653 mmHg 50%
    08:00 0°C° 0 mm 1 m/S 653 mmHg 49%
    09:00 +2°C° 0 mm 1 m/S 654 mmHg 48%
    10:00 +2°C° 0 mm 1 m/S 653 mmHg 48%
    11:00 +3°C° 0 mm 1 m/S 653 mmHg 47%
    12:00 +3°C° 0 mm 2 m/S 652 mmHg 47%
    13:00 +3°C° 0 mm 2 m/S 652 mmHg 47%
    14:00 +3°C° 0 mm 2 m/S 652 mmHg 46%
    15:00 +4°C° 0 mm 2 m/S 651 mmHg 46%
    16:00 +3°C° 0 mm 1 m/S 651 mmHg 49%
    17:00 +2°C° 0 mm 1 m/S 651 mmHg 51%
    18:00 0°C° 0 mm 1 m/S 651 mmHg 54%
    19:00 0°C° 0 mm 1 m/S 651 mmHg 52%
    20:00 -1°C° 0 mm 1 m/S 651 mmHg 50%
    21:00 -1°C° 0 mm 1 m/S 652 mmHg 47%
    22:00 -1°C° 0 mm 1 m/S 652 mmHg 47%
    23:00 -2°C° 0 mm 1 m/S 652 mmHg 46%

    22 Februar, Freitag

    Zeit Temperatur Niederschläge Wind Luftdruck Luftfeuchtigkeit
    00:00 -2°C° 0 mm 1 m/S 652 mmHg 45%
    01:00 -2°C° 0 mm 1 m/S 652 mmHg 47%
    02:00 -2°C° 0 mm 1 m/S 652 mmHg 48%
    03:00 -3°C° 0 mm 1 m/S 652 mmHg 49%
    04:00 -3°C° 0 mm 1 m/S 652 mmHg 51%
    05:00 -3°C° 0 mm 1 m/S 651 mmHg 53%
    06:00 -3°C° 0 mm 1 m/S 651 mmHg 55%
    07:00 -2°C° 0 mm 1 m/S 652 mmHg 54%
    08:00 -1°C° 0 mm 1 m/S 652 mmHg 53%
    09:00 +1°C° 0 mm 1 m/S 653 mmHg 53%
    10:00 +1°C° 0 mm 1 m/S 652 mmHg 52%
    11:00 +2°C° 0 mm 1 m/S 652 mmHg 51%
    12:00 +2°C° 0 mm 2 m/S 651 mmHg 51%
    13:00 +2°C° 0 mm 2 m/S 651 mmHg 51%
    14:00 +2°C° 0 mm 2 m/S 650 mmHg 51%
    15:00 +2°C° 0 mm 2 m/S 650 mmHg 51%
    16:00 +2°C° 0 mm 1 m/S 650 mmHg 54%
    17:00 +1°C° 0 mm 1 m/S 650 mmHg 57%
    18:00 0°C° 0 mm 1 m/S 650 mmHg 60%
    19:00 -1°C° 0 mm 1 m/S 650 mmHg 59%
    20:00 -1°C° 0 mm 1 m/S 650 mmHg 58%
    21:00 -4°C° 0 mm 2 m/S 650 mmHg 57%
    22:00 -4°C° 0 mm 2 m/S 650 mmHg 58%
    23:00 -4°C° 0 mm 2 m/S 650 mmHg 58%

    23 Februar, Samstag

    Zeit Temperatur Niederschläge Wind Luftdruck Luftfeuchtigkeit
    00:00 -4°C° 0 mm 2 m/S 650 mmHg 59%
    01:00 -4°C° 0 mm 2 m/S 650 mmHg 61%
    02:00 -5°C° 0 mm 2 m/S 650 mmHg 62%
    03:00 -5°C° 0 mm 2 m/S 649 mmHg 64%
    04:00 -5°C° 0 mm 2 m/S 649 mmHg 65%
    05:00 -5°C° 0 mm 2 m/S 649 mmHg 66%
    06:00 -6°C° 0 mm 2 m/S 649 mmHg 68%
    07:00 -4°C° 0 mm 2 m/S 649 mmHg 66%
    08:00 -3°C° 0 mm 2 m/S 649 mmHg 65%
    09:00 -2°C° 0 mm 2 m/S 650 mmHg 64%
    10:00 -1°C° 0 mm 2 m/S 649 mmHg 63%
    11:00 +1°C° 0 mm 2 m/S 649 mmHg 61%
    12:00 +1°C° 0 mm 3 m/S 648 mmHg 60%
    13:00 +1°C° 0 mm 3 m/S 648 mmHg 59%
    14:00 +1°C° 0 mm 3 m/S 647 mmHg 58%
    15:00 +3°C° 0 mm 2 m/S 647 mmHg 57%
    16:00 +1°C° 0 mm 3 m/S 647 mmHg 60%
    17:00 0°C° 0 mm 3 m/S 647 mmHg 63%
    18:00 -1°C° 0 mm 3 m/S 647 mmHg 66%
    19:00 -1°C° 0 mm 3 m/S 647 mmHg 65%
    20:00 -1°C° 0 mm 3 m/S 647 mmHg 64%
    21:00 -2°C° 0 mm 3 m/S 647 mmHg 62%
    22:00 -1°C° 0 mm 3 m/S 648 mmHg 62%
    23:00 -1°C° 0 mm 3 m/S 648 mmHg 62%
    Mehr zeigen